Weather History for Rotterdam Airport Zestienhoven, Netherlands

Change the Weather History Date:

Sunday, July 28, 2013

  Actual Average Record
Temperature  
Mean Temperature 70 °F -  
Max Temperature 75 °F 70 °F - ()
Min Temperature 64 °F 55 °F - ()
Cooling Degree Days 4    
Growing Degree Days 20 (Base 50)    
Moisture  
Dew Point 60 °F    
Average Humidity 74    
Maximum Humidity 100    
Minimum Humidity 48    
Precipitation  
Precipitation 0.00 in - - ()
Sea Level Pressure  
Sea Level Pressure 29.79 in    
Wind  
Wind Speed 11 mph ()    
Max Wind Speed 18 mph    
Max Gust Speed 25 mph    
Visibility 6.9 miles    
Events Rain , Thunderstorm    
T = Trace of Precipitation, MM = Missing Value Source: Averaged Metar Reports

Daily Weather History Graph

Daily Weather History Graph

Search for Another Location

Airport:

Trip Planner

Search our weather history database for the weather conditions in past years. The results will help you decide how hot, cold, wet, or windy it might be!

Date:

Astronomy

Jul. 28, 2013 Rise Set
Actual Time 5:58 AM CEST 9:38 PM CEST
Civil Twilight 5:15 AM CEST 10:20 PM CEST
Nautical Twilight 4:17 AM CEST 11:17 PM CEST
Astronomical Twilight 2:45 AM CEST 12:46 AM CEST
Moon 11:51 PM CEST (7/28) 1:21 PM CEST (7/28)
Length of Visible Light 17h 04m
Length of Day
15h 40m
Waning Gibbous, 63% of the Moon is Illuminated
Jul 28
Waning Gibbous
Jul 29
Last Quarter
Aug 6
New
Aug 14
First Quarter
Aug 21
Full

Hourly Weather History & Observations

Time (CEST) Temp. Dew Point Humidity Pressure Visibility Wind Dir Wind Speed Gust Speed Precip Events Conditions
12:25 AM 68.0 °F 68.0 °F 100% 29.68 in 1.7 mi SW 4.6 mph - N/A Rain , Thunderstorm Light Thunderstorms and Rain
12:55 AM 68.0 °F 68.0 °F 100% 29.68 in 2.2 mi ESE 15.0 mph - N/A Rain , Thunderstorm Thunderstorms and Rain
1:25 AM 68.0 °F 68.0 °F 100% 29.68 in - ESE 11.5 mph - N/A Rain , Thunderstorm Thunderstorms and Rain
1:55 AM 68.0 °F 66.2 °F 94% 29.62 in 5.6 mi East 16.1 mph - N/A Rain Light Rain
2:00 AM 67 °F 66 °F 97% 29.64 in 6 mi East 13.4 mph - - Thunderstorm Light Thunderstorm
2:25 AM 68.0 °F 66.2 °F 94% 29.62 in 6.2 mi ESE 8.1 mph - N/A   Unknown
2:55 AM 68.0 °F 66.2 °F 94% 29.62 in 6.2 mi SE 8.1 mph - N/A   Unknown
3:25 AM 68.0 °F 64.4 °F 88% 29.65 in 6.2 mi SSE 11.5 mph - N/A   Overcast
3:55 AM 68.0 °F 64.4 °F 88% 29.65 in 6.2 mi South 12.7 mph - N/A   Overcast
4:25 AM 68.0 °F 66.2 °F 94% 29.68 in 6.2 mi SSW 10.4 mph 23.0 mph N/A   Mostly Cloudy
4:55 AM 66.2 °F 62.6 °F 88% 29.68 in 6.2 mi WSW 18.4 mph - N/A   Mostly Cloudy
5:00 AM 66 °F 62 °F 81% 29.70 in 28 mi SW 15.7 mph - -   Scattered Clouds
5:25 AM 66.2 °F 62.6 °F 88% 29.68 in 6.2 mi SW 17.3 mph - N/A   Overcast
5:55 AM 66.2 °F 60.8 °F 83% 29.71 in 6.2 mi SW 16.1 mph - N/A   Overcast
6:25 AM 66.2 °F 60.8 °F 83% 29.71 in 6.2 mi SW 15.0 mph - N/A   Mostly Cloudy
6:55 AM 66.2 °F 60.8 °F 83% 29.74 in 6.2 mi SSW 17.3 mph - N/A   Overcast
7:25 AM 64.4 °F 59.0 °F 83% 29.74 in 6.2 mi SSW 13.8 mph - N/A   Overcast
7:55 AM 64.4 °F 59.0 °F 83% 29.74 in 6.2 mi SW 15.0 mph - N/A   Overcast
8:00 AM 65 °F 59 °F 75% 29.77 in 15 mi SW 15.7 mph - -   Partly Cloudy
8:25 AM 64.4 °F 59.0 °F 83% 29.77 in 6.2 mi SW 16.1 mph - N/A   Overcast
8:55 AM 64.4 °F 59.0 °F 83% 29.77 in 6.2 mi SW 16.1 mph - N/A   Overcast
9:25 AM 66.2 °F 59.0 °F 78% 29.77 in 6.2 mi SW 17.3 mph - N/A   Partly Cloudy
9:55 AM 66.2 °F 59.0 °F 78% 29.80 in 6.2 mi SW 16.1 mph - N/A   Partly Cloudy
10:25 AM 66.2 °F 57.2 °F 73% 29.80 in 6.2 mi SW 16.1 mph - N/A   Partly Cloudy
10:55 AM 66.2 °F 59.0 °F 78% 29.80 in 6.2 mi SW 12.7 mph - N/A   Partly Cloudy
11:00 AM 66 °F 58 °F 68% 29.83 in 17 mi SW 15.7 mph - -   Mostly Cloudy
11:25 AM 66.2 °F 59.0 °F 78% 29.83 in 6.2 mi SW 13.8 mph - N/A   Unknown
11:55 AM 68.0 °F 59.0 °F 73% 29.83 in 6.2 mi SW 13.8 mph - N/A   Unknown
12:25 PM 68.0 °F 59.0 °F 73% 29.83 in 6.2 mi SSW 12.7 mph - N/A   Unknown
12:55 PM 69.8 °F 59.0 °F 68% 29.83 in 6.2 mi SW 12.7 mph - N/A   Partly Cloudy
1:25 PM 71.6 °F 59.0 °F 64% 29.83 in 6.2 mi SSW 12.7 mph - N/A   Partly Cloudy
1:55 PM 73.4 °F 59.0 °F 61% 29.83 in 6.2 mi SSW 11.5 mph - N/A   Scattered Clouds
2:00 PM 72 °F 56 °F 48% 29.86 in 19 mi WSW 13.4 mph - -   Partly Cloudy
2:25 PM 71.6 °F 55.4 °F 57% 29.86 in 6.2 mi SW 12.7 mph 24.2 mph N/A   Partly Cloudy
2:55 PM 73.4 °F 57.2 °F 57% 29.86 in 6.2 mi SSW 12.7 mph - N/A   Scattered Clouds
3:25 PM 73.4 °F 59.0 °F 61% 29.86 in 6.2 mi SSW 13.8 mph - N/A   Scattered Clouds
3:55 PM 73.4 °F 57.2 °F 57% 29.86 in 6.2 mi SSW 11.5 mph - N/A   Partly Cloudy
4:25 PM 75.2 °F 59.0 °F 57% 29.86 in 6.2 mi SW 15.0 mph - N/A   Mostly Cloudy
4:55 PM 73.4 °F 57.2 °F 57% 29.86 in 6.2 mi SSW 13.8 mph 25.3 mph N/A   Mostly Cloudy
5:00 PM 74 °F 58 °F 48% 29.86 in 19 mi SW 13.4 mph - -   Partly Cloudy
5:25 PM 73.4 °F 57.2 °F 57% 29.86 in 6.2 mi SSW 15.0 mph - N/A   Mostly Cloudy
5:55 PM 71.6 °F 57.2 °F 60% 29.86 in 6.2 mi SW 15.0 mph - N/A   Unknown
6:25 PM 75.2 °F 59.0 °F 57% 29.86 in 6.2 mi South 12.7 mph - N/A   Scattered Clouds
6:55 PM 73.4 °F 57.2 °F 57% 29.86 in 6.2 mi South 11.5 mph - N/A   Mostly Cloudy
7:25 PM 71.6 °F 57.2 °F 60% 29.86 in 6.2 mi South 12.7 mph - N/A   Partly Cloudy
7:55 PM 71.6 °F 59.0 °F 64% 29.86 in 6.2 mi South 11.5 mph - N/A   Unknown
8:00 PM 72 °F 58 °F 52% 29.88 in 22 mi SSW 8.9 mph - -   Partly Cloudy
8:25 PM 71.6 °F 57.2 °F 60% 29.86 in 6.2 mi South 10.4 mph - N/A   Scattered Clouds
8:55 PM 71.6 °F 57.2 °F 60% 29.86 in 6.2 mi South 8.1 mph - N/A   Unknown
9:25 PM 69.8 °F 57.2 °F 64% 29.86 in 6.2 mi South 6.9 mph - N/A   Partly Cloudy
9:55 PM 68.0 °F 59.0 °F 73% 29.86 in 6.2 mi South 8.1 mph - N/A   Unknown
10:25 PM 68.0 °F 59.0 °F 73% 29.89 in 6.2 mi South 4.6 mph - N/A   Unknown
10:55 PM 68.0 °F 59.0 °F 73% 29.89 in 6.2 mi SSE 4.6 mph - N/A   Unknown
11:25 PM 66.2 °F 59.0 °F 78% 29.89 in 6.2 mi SSE 4.6 mph - N/A   Unknown
11:55 PM 66.2 °F 57.2 °F 73% 29.89 in 6.2 mi SSE 4.6 mph - N/A   Unknown